.
WxDataArchive / Data Records for 2012-01-12
2012-01-11 January 2012 2012-01-13

Data Records for Thursday, 12 January 2012

Time	Temp	Chill	HIndex	Humid	Dewpt	 Wind 	HiWind	WindDir	Rain 	Barom 
-----	----	-----	------	-----	-----	------	------	-------	-----	----- 
00:00	37.8	37.8	37.8	95	36.5	0	0	---	0.00	29.442 
00:05	37.8	37.8	37.8	95	36.5	0	0	---	0.00	29.442 
00:10	37.8	37.8	37.8	95	36.5	0	0	---	0.00	29.442 
00:15	37.8	37.8	37.8	95	36.5	0	0	---	0.00	29.434 
00:20	37.8	37.8	37.8	95	36.5	0	0	---	0.00	29.434 
00:25	37.8	37.8	37.8	95	36.5	0	0	---	0.00	29.434 
00:30	37.8	37.8	37.8	95	36.5	0	0	---	0.00	29.427 
00:35	37.8	37.8	37.8	95	36.5	0	1	45	0.00	29.427 
00:40	37.6	37.6	37.6	95	36.3	0	1	45	0.00	29.427 
00:45	37.6	37.6	37.6	95	36.3	0	0	---	0.00	29.431 
00:50	37.6	37.6	37.6	95	36.3	0	0	---	0.00	29.431 
00:55	37.6	37.6	37.6	95	36.3	0	1	45	0.00	29.431 
01:00	37.6	37.6	37.6	95	36.3	0	0	---	0.00	29.429 
01:05	37.6	37.6	37.6	95	36.3	0	0	---	0.00	29.429 
01:10	37.6	37.6	37.6	95	36.3	0	1	45	0.00	29.429 
01:15	37.6	37.6	37.6	95	36.3	0	0	---	0.00	29.429 
01:20	37.6	37.6	37.6	95	36.3	0	2	45	0.00	29.429 
01:25	37.6	37.6	37.6	95	36.3	0	2	45	0.01	29.429 
01:30	37.6	37.6	37.6	95	36.3	0	1	45	0.00	29.432 
01:35	37.6	37.6	37.6	95	36.3	0	0	---	0.00	29.432 
01:40	37.6	37.6	37.6	95	36.3	0	1	45	0.00	29.432 
01:45	37.6	37.6	37.6	96	36.6	0	0	---	0.00	29.427 
01:50	37.6	37.6	37.6	96	36.6	0	2	45	0.01	29.427 
01:55	37.6	37.6	37.6	95	36.3	0	2	45	0.00	29.427 
02:00	37.6	37.6	37.6	95	36.3	0	1	45	0.00	29.424 
02:05	37.6	37.6	37.6	96	36.6	0	2	338	0.00	29.424 
02:10	37.6	37.6	37.6	96	36.6	0	1	338	0.00	29.424 
02:15	37.6	37.6	37.6	96	36.6	0	2	338	0.00	29.424 
02:20	37.6	37.6	37.6	96	36.6	0	2	338	0.01	29.424 
02:25	37.6	37.6	37.6	96	36.6	0	1	338	0.00	29.424 
02:30	37.6	37.6	37.6	96	36.6	0	2	338	0.00	29.427 
02:35	37.6	37.6	37.6	96	36.6	0	2	338	0.00	29.427 
02:40	37.5	37.5	37.5	96	36.5	0	1	338	0.00	29.427 
02:45	37.5	37.5	37.5	96	36.5	0	1	338	0.00	29.423 
02:50	37.5	37.5	37.5	96	36.5	0	1	338	0.00	29.423 
02:55	37.5	37.5	37.5	96	36.5	0	0	---	0.00	29.423 
03:00	37.5	37.5	37.5	96	36.5	0	1	338	0.00	29.424 
03:05	37.5	37.5	37.5	96	36.5	0	1	338	0.00	29.424 
03:10	37.5	37.5	37.5	96	36.5	0	2	338	0.00	29.424 
03:15	37.5	37.5	37.5	96	36.5	0	2	338	0.00	29.426 
03:20	37.6	37.6	37.6	96	36.6	0	2	338	0.00	29.426 
03:25	37.6	37.6	37.6	96	36.6	0	2	338	0.00	29.426 
03:30	37.6	37.6	37.6	96	36.6	0	1	338	0.00	29.427 
03:35	37.6	37.6	37.6	96	36.6	0	1	338	0.00	29.427 
03:40	37.6	37.6	37.6	96	36.6	0	0	---	0.00	29.427 
03:45	37.6	37.6	37.6	96	36.6	0	1	338	0.00	29.426 
03:50	37.6	37.6	37.6	96	36.6	0	0	---	0.00	29.426 
03:55	37.6	37.6	37.6	96	36.6	0	1	338	0.00	29.426 
04:00	37.6	37.6	37.6	96	36.6	0	1	338	0.00	29.425 
04:05	37.6	37.6	37.6	96	36.6	0	0	---	0.00	29.425 
04:10	37.6	37.6	37.6	96	36.6	0	0	---	0.00	29.425 
04:15	37.6	37.6	37.6	96	36.6	0	2	338	0.00	29.419 
04:20	37.6	37.6	37.6	96	36.6	0	1	338	0.00	29.419 
04:25	37.6	37.6	37.6	96	36.6	0	0	---	0.00	29.419 
04:30	37.6	37.6	37.6	96	36.6	0	0	---	0.00	29.419 
04:35	37.6	37.6	37.6	96	36.6	0	2	338	0.00	29.419 
04:40	37.8	37.8	37.8	96	36.8	0	0	---	0.00	29.419 
04:45	37.8	37.8	37.8	96	36.8	0	0	---	0.00	29.418 
04:50	37.8	37.8	37.8	96	36.8	0	1	338	0.00	29.418 
04:55	37.8	37.8	37.8	96	36.8	0	1	338	0.00	29.418 
05:00	37.8	37.8	37.8	96	36.8	0	1	338	0.00	29.414 
05:05	37.8	37.8	37.8	96	36.8	0	0	---	0.00	29.414 
05:10	37.8	37.8	37.8	96	36.8	0	0	---	0.00	29.414 
05:15	37.8	37.8	37.8	96	36.8	0	1	338	0.00	29.414 
05:20	37.8	37.8	37.8	96	36.8	0	1	338	0.00	29.414 
05:25	37.8	37.8	37.8	96	36.8	0	1	338	0.00	29.414 
05:30	37.6	37.6	37.6	96	36.6	0	2	338	0.00	29.418 
05:35	37.6	37.6	37.6	96	36.6	0	1	338	0.00	29.418 
05:40	37.6	37.6	37.6	96	36.6	0	1	338	0.00	29.418 
05:45	37.6	37.6	37.6	96	36.6	0	2	338	0.00	29.422 
05:50	37.6	37.6	37.6	96	36.6	0	0	---	0.00	29.422 
05:55	37.6	37.6	37.6	96	36.6	0	0	---	0.00	29.422 
06:00	37.8	37.8	37.8	96	36.8	0	1	338	0.00	29.415 
06:05	37.8	37.8	37.8	96	36.8	0	0	---	0.00	29.415 
06:10	37.8	37.8	37.8	96	36.8	0	2	338	0.00	29.415 
06:15	37.8	37.8	37.8	96	36.8	0	1	338	0.00	29.424 
06:20	37.8	37.8	37.8	96	36.8	0	1	338	0.00	29.424 
06:25	37.8	37.8	37.8	96	36.8	0	1	338	0.00	29.424 
06:30	37.8	37.8	37.8	96	36.8	0	0	---	0.00	29.428 
06:35	37.8	37.8	37.8	96	36.8	0	1	338	0.00	29.428 
06:40	37.8	37.8	37.8	96	36.8	0	1	338	0.00	29.428 
06:45	37.8	37.8	37.8	96	36.8	0	1	338	0.00	29.431 
06:50	37.8	37.8	37.8	96	36.8	0	1	338	0.01	29.431 
06:55	37.8	37.8	37.8	96	36.8	0	2	338	0.00	29.431 
07:00	37.8	37.8	37.8	96	36.8	0	2	338	0.00	29.438 
07:05	37.8	37.8	37.8	96	36.8	0	2	338	0.00	29.438 
07:10	37.8	37.8	37.8	96	36.8	0	0	---	0.00	29.438 
07:15	37.6	37.6	37.6	96	36.6	0	1	338	0.00	29.428 
07:20	37.6	37.6	37.6	96	36.6	0	1	338	0.00	29.428 
07:25	37.6	37.6	37.6	96	36.6	0	1	338	0.00	29.428 
07:30	37.6	37.6	37.6	96	36.6	0	2	338	0.00	29.431 
07:35	37.6	37.6	37.6	96	36.6	0	1	338	0.00	29.431 
07:40	37.6	37.6	37.6	96	36.6	0	1	338	0.00	29.431 
07:45	37.6	37.6	37.6	96	36.6	0	2	292	0.00	29.431 
07:50	37.6	37.6	37.6	96	36.6	0	2	292	0.00	29.431 
07:55	37.5	37.5	37.5	96	36.5	0	1	292	0.00	29.431 
08:00	37.5	37.5	37.5	96	36.5	0	1	292	0.00	29.429 
08:05	37.5	37.5	37.5	96	36.5	0	2	292	0.00	29.429 
08:10	37.5	37.5	37.5	96	36.5	0	1	292	0.00	29.429 
08:15	37.5	37.5	37.5	96	36.5	1	2	292	0.00	29.432 
08:20	37.5	37.5	37.5	96	36.5	0	2	292	0.00	29.432 
08:25	37.5	37.5	37.5	96	36.5	1	2	292	0.00	29.432 
08:30	37.5	37.5	37.5	96	36.5	1	3	292	0.00	29.430 
08:35	37.5	37.5	37.5	96	36.5	1	2	292	0.00	29.430 
08:40	37.6	37.6	37.6	96	36.6	1	2	292	0.00	29.430 
08:45	37.6	37.6	37.6	96	36.6	1	3	292	0.00	29.428 
08:50	37.6	37.6	37.6	96	36.6	0	2	292	0.00	29.428 
08:55	37.8	37.8	37.8	96	36.8	1	2	270	0.00	29.428 
09:00	37.8	37.8	37.8	96	36.8	1	3	270	0.00	29.428 
09:05	37.8	37.8	37.8	96	36.8	1	2	270	0.00	29.428 
09:10	37.9	37.9	37.9	96	36.9	0	2	270	0.00	29.428 
09:15	37.9	37.9	37.9	96	36.9	0	2	270	0.00	29.430 
09:20	37.9	37.9	37.9	96	36.9	0	3	270	0.00	29.430 
09:25	38.0	38.0	38.0	96	37.0	0	1	270	0.00	29.430 
09:30	38.0	38.0	38.0	96	37.0	1	3	270	0.00	29.428 
09:35	38.2	38.2	38.2	96	37.2	1	3	270	0.00	29.428 
09:40	38.3	38.3	38.3	96	37.3	0	2	270	0.00	29.428 
09:45	38.5	38.5	38.5	96	37.5	1	3	270	0.00	29.413 
09:50	38.6	38.6	38.6	96	37.6	0	2	270	0.00	29.413 
09:55	38.8	38.8	38.8	96	37.8	1	3	270	0.00	29.413 
10:00	38.9	38.9	38.9	96	37.9	1	4	270	0.00	29.423 
10:05	38.9	38.9	38.9	96	37.9	2	6	248	0.00	29.423 
10:10	39.1	39.1	39.1	96	38.1	1	4	248	0.00	29.423 
10:15	39.2	39.2	39.2	96	38.2	1	3	270	0.00	29.417 
10:20	39.2	39.2	39.2	96	38.2	1	4	270	0.00	29.417 
10:25	39.3	39.3	39.3	96	38.3	1	3	270	0.00	29.417 
10:30	39.5	39.5	39.5	96	38.5	1	3	270	0.00	29.414 
10:35	39.5	39.5	39.5	96	38.5	2	5	270	0.00	29.414 
10:40	39.5	39.5	39.5	96	38.5	1	3	270	0.00	29.414 
10:45	39.5	39.5	39.5	96	38.5	1	5	248	0.00	29.413 
10:50	39.6	39.6	39.6	96	38.6	1	3	248	0.00	29.413 
10:55	39.8	39.8	39.8	96	38.8	1	5	248	0.00	29.413 
11:00	39.8	39.8	39.8	96	38.8	1	3	248	0.00	29.408 
11:05	39.9	39.9	39.9	96	38.9	1	3	248	0.00	29.408 
11:10	39.9	39.9	39.9	96	38.9	1	5	248	0.00	29.408 
11:15	39.9	39.9	39.9	96	38.9	1	4	225	0.00	29.400 
11:20	40.1	40.1	40.1	96	39.1	1	3	248	0.00	29.400 
11:25	40.1	40.1	40.1	96	39.1	1	4	248	0.00	29.400 
11:30	40.1	40.1	40.1	96	39.1	1	4	270	0.00	29.400 
11:35	40.1	40.1	40.1	96	39.1	2	5	248	0.00	29.400 
11:40	39.8	39.8	39.8	95	38.5	3	9	248	0.00	29.400 
11:45	39.6	39.6	39.6	95	38.3	3	6	248	0.00	29.394 
11:50	39.5	39.5	39.5	95	38.2	2	7	248	0.00	29.394 
11:55	39.2	39.2	39.2	95	37.9	2	9	248	0.00	29.394 
12:00	38.5	35.6	38.5	95	37.2	4	10	248	0.00	29.395 
12:05	37.9	37.9	37.9	95	36.6	1	4	248	0.00	29.395 
12:10	37.5	37.5	37.5	95	36.2	3	9	248	0.00	29.395 
12:15	36.9	36.9	36.9	94	35.3	3	7	248	0.00	29.386 
12:20	36.6	36.6	36.6	95	35.3	2	4	248	0.00	29.386 
12:25	36.5	36.5	36.5	95	35.2	1	5	225	0.00	29.386 
12:30	36.5	36.5	36.5	95	35.2	1	4	248	0.00	29.384 
12:35	36.6	36.6	36.6	95	35.3	1	4	248	0.00	29.384 
12:40	36.5	36.5	36.5	95	35.2	1	4	248	0.00	29.384 
12:45	36.2	36.2	36.2	94	34.6	2	5	248	0.00	29.381 
12:50	35.9	35.9	35.9	94	34.3	2	5	248	0.00	29.381 
12:55	35.8	35.8	35.8	94	34.2	1	4	248	0.00	29.381 
13:00	35.8	35.8	35.8	94	34.2	2	5	248	0.00	29.375 
13:05	35.5	35.5	35.5	94	33.9	2	5	248	0.00	29.375 
13:10	35.3	35.3	35.3	94	33.7	3	6	248	0.00	29.375 
13:15	35.2	35.2	35.2	94	33.6	3	6	248	0.00	29.375 
13:20	35.2	35.2	35.2	94	33.6	2	5	248	0.00	29.375 
13:25	35.0	35.0	35.0	94	33.5	2	7	248	0.00	29.375 
13:30	34.9	34.9	34.9	94	33.4	2	5	248	0.00	29.378 
13:35	34.7	34.7	34.7	94	33.2	2	6	248	0.00	29.378 
13:40	34.6	34.6	34.6	93	32.8	3	9	248	0.00	29.378 
13:45	34.6	34.6	34.6	93	32.8	3	10	248	0.00	29.370 
13:50	34.4	30.8	34.4	94	32.9	4	10	248	0.00	29.370 
13:55	34.4	34.4	34.4	94	32.9	2	7	248	0.00	29.370 
14:00	34.4	34.4	34.4	94	32.9	2	5	248	0.00	29.368 
14:05	34.3	34.3	34.3	94	32.8	2	6	248	0.00	29.368 
14:10	34.0	34.0	34.0	93	32.2	3	5	248	0.00	29.368 
14:15	33.7	33.7	33.7	93	31.9	3	9	248	0.00	29.369 
14:20	33.5	33.5	33.5	94	32.0	3	11	248	0.00	29.369 
14:25	33.4	33.4	33.4	93	31.6	3	9	248	0.00	29.369 
14:30	33.2	33.2	33.2	93	31.4	3	11	225	0.00	29.369 
14:35	33.1	33.1	33.1	94	31.6	3	6	248	0.00	29.369 
14:40	32.9	32.9	32.9	94	31.4	3	10	248	0.00	29.369 
14:45	32.8	32.8	32.8	94	31.3	2	6	248	0.00	29.372 
14:50	32.7	32.7	32.7	93	30.9	2	7	248	0.00	29.372 
14:55	32.4	32.4	32.4	93	30.6	2	9	248	0.00	29.372 
15:00	32.2	32.2	32.2	93	30.4	2	7	248	0.00	29.385 
15:05	31.9	31.9	31.9	93	30.1	2	6	248	0.00	29.385 
15:10	31.8	27.8	31.8	93	30.0	4	9	248	0.00	29.385 
15:15	31.5	31.5	31.5	93	29.7	3	6	248	0.00	29.390 
15:20	31.3	31.3	31.3	93	29.5	3	6	248	0.00	29.390 
15:25	31.0	31.0	31.0	93	29.2	3	9	248	0.00	29.390 
15:30	30.7	26.6	30.7	93	28.9	4	11	248	0.00	29.399 
15:35	30.6	30.6	30.6	93	28.8	3	9	248	0.00	29.399 
15:40	30.3	26.1	30.3	92	28.3	4	10	248	0.00	29.399 
15:45	30.0	30.0	30.0	92	28.0	3	7	248	0.00	29.402 
15:50	29.7	25.4	29.7	92	27.7	4	10	248	0.00	29.402 
15:55	29.3	25.0	29.3	91	27.0	4	9	248	0.00	29.402 
16:00	29.1	29.1	29.1	91	26.8	3	6	248	0.00	29.405 
16:05	29.0	29.0	29.0	91	26.7	3	11	248	0.00	29.405 
16:10	28.8	28.8	28.8	91	26.5	3	6	248	0.00	29.405 
16:15	28.4	23.9	28.4	91	26.1	4	9	248	0.00	29.412 
16:20	28.1	28.1	28.1	91	25.8	3	7	270	0.00	29.412 
16:25	27.9	23.3	27.9	91	25.6	4	10	248	0.00	29.412 
16:30	27.8	27.8	27.8	91	25.5	3	7	248	0.00	29.421 
16:35	27.8	27.8	27.8	91	25.5	2	7	270	0.00	29.421 
16:40	26.7	20.9	26.7	89	23.9	5	10	248	0.00	29.421 
16:45	25.8	19.8	25.8	88	22.7	5	14	270	0.00	29.433 
16:50	25.6	20.7	25.6	88	22.5	4	13	248	0.00	29.433 
16:55	25.3	20.3	25.3	88	22.3	4	11	248	0.00	29.433 
17:00	25.1	25.1	25.1	87	21.8	3	9	248	0.00	29.437 
17:05	24.8	19.8	24.8	86	21.2	4	10	270	0.00	29.437 
17:10	24.5	18.3	24.5	86	20.9	5	10	248	0.00	29.437 
17:15	24.4	19.3	24.4	85	20.6	4	11	248	0.00	29.444 
17:20	24.2	19.1	24.2	85	20.4	4	11	270	0.00	29.444 
17:25	24.2	24.2	24.2	85	20.4	3	7	248	0.00	29.444 
17:30	24.1	24.1	24.1	84	20.0	3	11	248	0.00	29.449 
17:35	23.8	18.6	23.8	83	19.4	4	9	270	0.00	29.449 
17:40	23.5	18.3	23.5	82	18.8	4	12	270	0.00	29.449 
17:45	23.5	23.5	23.5	82	18.8	3	9	248	0.00	29.458 
17:50	23.3	23.3	23.3	82	18.6	3	10	248	0.00	29.458 
17:55	23.2	16.7	23.2	81	18.3	5	14	270	0.00	29.458 
18:00	22.7	16.2	22.7	78	16.9	5	13	248	0.00	29.461 
18:05	22.5	17.1	22.5	78	16.7	4	11	248	0.00	29.461 
18:10	22.5	17.1	22.5	79	17.0	4	8	270	0.00	29.461 
18:15	22.5	17.1	22.5	79	17.0	4	9	270	0.00	29.460 
18:20	22.5	15.9	22.5	80	17.3	5	11	248	0.00	29.460 
18:25	22.4	17.0	22.4	79	16.9	4	13	270	0.00	29.460 
18:30	21.9	15.2	21.9	78	16.1	5	14	248	0.00	29.468 
18:35	21.6	14.9	21.6	77	15.5	5	13	248	0.00	29.468 
18:40	21.4	14.6	21.4	77	15.3	5	14	248	0.00	29.468 
18:45	21.4	15.8	21.4	78	15.6	4	12	270	0.00	29.475 
18:50	21.3	15.7	21.3	78	15.5	4	12	270	0.00	29.475 
18:55	21.3	14.5	21.3	78	15.5	5	12	248	0.00	29.475 
19:00	21.0	14.2	21.0	77	14.9	5	16	248	0.00	29.474 
19:05	20.8	15.1	20.8	76	14.5	4	11	270	0.00	29.474 
19:10	20.6	14.9	20.6	76	14.3	4	10	248	0.00	29.474 
19:15	20.5	14.8	20.5	75	13.9	4	9	248	0.00	29.485 
19:20	20.3	14.6	20.3	75	13.7	4	11	248	0.00	29.485 
19:25	20.2	14.4	20.2	75	13.6	4	10	248	0.00	29.485 
19:30	20.0	14.2	20.0	75	13.4	4	12	248	0.00	29.491 
19:35	19.9	12.9	19.9	74	13.0	5	15	248	0.00	29.491 
19:40	19.9	19.9	19.9	75	13.3	3	10	248	0.00	29.491 
19:45	19.9	19.9	19.9	76	13.6	3	7	248	0.00	29.494 
19:50	19.7	19.7	19.7	77	13.7	3	6	270	0.00	29.494 
19:55	19.7	13.9	19.7	77	13.7	4	10	248	0.00	29.494 
20:00	19.4	13.5	19.4	76	13.1	4	11	248	0.00	29.501 
20:05	19.2	13.3	19.2	76	12.9	4	9	248	0.00	29.501 
20:10	19.1	19.1	19.1	76	12.8	3	9	248	0.00	29.501 
20:15	18.9	12.9	18.9	76	12.6	4	13	248	0.00	29.509 
20:20	18.4	11.1	18.4	74	11.5	5	12	270	0.00	29.509 
20:25	18.3	12.3	18.3	74	11.4	4	10	248	0.00	29.509 
20:30	18.3	18.3	18.3	75	11.7	2	7	248	0.00	29.506 
20:35	18.3	18.3	18.3	76	12.0	3	10	248	0.00	29.506 
20:40	18.1	12.0	18.1	75	11.5	4	13	270	0.00	29.506 
20:45	17.7	9.2	17.7	73	10.5	6	14	270	0.00	29.510 
20:50	17.5	11.3	17.5	73	10.3	4	7	270	0.00	29.510 
20:55	17.5	11.3	17.5	74	10.7	4	12	270	0.00	29.510 
21:00	17.3	11.1	17.3	74	10.5	4	14	270	0.00	29.504 
21:05	17.2	9.7	17.2	73	10.1	5	14	248	0.00	29.504 
21:10	17.2	9.7	17.2	73	10.1	5	11	270	0.00	29.504 
21:15	17.2	9.7	17.2	74	10.4	5	12	248	0.00	29.502 
21:20	17.2	11.0	17.2	74	10.4	4	10	248	0.00	29.502 
21:25	17.2	9.7	17.2	74	10.4	5	11	270	0.00	29.502 
21:30	17.2	9.7	17.2	73	10.1	5	13	248	0.00	29.497 
21:35	17.2	9.7	17.2	73	10.1	5	14	248	0.00	29.497 
21:40	17.2	11.0	17.2	73	10.1	4	13	248	0.00	29.497 
21:45	17.2	9.7	17.2	73	10.1	5	13	248	0.00	29.495 
21:50	17.2	11.0	17.2	73	10.1	4	11	248	0.00	29.495 
21:55	17.2	9.7	17.2	73	10.1	5	11	248	0.00	29.495 
22:00	17.3	11.1	17.3	73	10.2	4	10	248	0.00	29.495 
22:05	17.2	9.7	17.2	73	10.1	5	12	248	0.00	29.495 
22:10	17.2	11.0	17.2	73	10.1	4	9	248	0.00	29.495 
22:15	17.2	11.0	17.2	74	10.4	4	11	248	0.00	29.494 
22:20	17.2	9.7	17.2	73	10.1	5	12	248	0.00	29.494 
22:25	17.2	9.7	17.2	73	10.1	5	14	248	0.00	29.494 
22:30	17.3	11.1	17.3	73	10.2	4	11	248	0.00	29.499 
22:35	17.3	11.1	17.3	73	10.2	4	12	248	0.00	29.499 
22:40	17.3	11.1	17.3	73	10.2	4	12	248	0.00	29.499 
22:45	17.3	11.1	17.3	74	10.5	4	9	248	0.00	29.512 
22:50	17.3	11.1	17.3	73	10.2	4	13	248	0.00	29.512 
22:55	17.3	17.3	17.3	73	10.2	3	10	248	0.00	29.512 
23:00	17.2	11.0	17.2	74	10.4	4	12	248	0.00	29.514 
23:05	17.2	17.2	17.2	74	10.4	3	11	248	0.00	29.514 
23:10	17.2	11.0	17.2	74	10.4	4	9	248	0.00	29.514 
23:15	17.2	9.7	17.2	73	10.1	5	14	248	0.00	29.512 
23:20	17.0	10.7	17.0	73	9.9	4	7	248	0.00	29.512 
23:25	17.2	17.2	17.2	74	10.4	2	9	248	0.00	29.512 
23:30	17.2	17.2	17.2	74	10.4	3	13	225	0.00	29.510 
23:35	17.0	17.0	17.0	75	10.5	3	7	248	0.00	29.510 
23:40	17.0	17.0	17.0	75	10.5	3	9	248	0.00	29.510 
23:45	16.9	10.6	16.9	76	10.7	4	12	248	0.00	29.503 
23:50	16.9	10.6	16.9	76	10.7	4	11	248	0.00	29.503 
23:55	16.7	8.0	16.7	76	10.5	6	16	248	0.00	29.503 

CoCoRaHS
IN-AL-39
A2 Web Hosting
Creative Commons License
GoDaddy
search engine by freefind advanced

loaded 2018-11-16 23:25:21 • last modified 2010-11-18 10:43:29
Privacy PolicyDisclaimer
• wx.awcolley.com is powered by PmWiki v.2002016 •
• all content (unless otherwise noted) © 2018 A W Colley